Hourly Weather Holovashivka

Today, 13 April, Tuesday

Time Temperature Precipitation Wind Pressure Humidity
00:00 +12°C° 0 mm 2 mps 751 mmHg 86%
01:00 +10°C° 0 mm 2 mps 751 mmHg 88%
02:00 +10°C° 0 mm 2 mps 751 mmHg 90%
03:00 +10°C° 0 mm 2 mps 751 mmHg 90%
04:00 +10°C° 0 mm 2 mps 751 mmHg 90%
05:00 +10°C° 0 mm 2 mps 751 mmHg 90%
06:00 +10°C° 0 mm 2 mps 751 mmHg 88%
07:00 +12°C° 0 mm 2 mps 751 mmHg 86%
08:00 +13°C° 0 mm 2 mps 751 mmHg 80%
09:00 +13°C° 0 mm 3 mps 751 mmHg 75%
10:00 +14°C° 0 mm 3 mps 751 mmHg 71%
11:00 +16°C° 0 mm 3 mps 751 mmHg 66%
12:00 +15°C° 0 mm 4 mps 751 mmHg 63%
13:00 +17°C° 0 mm 4 mps 751 mmHg 61%
14:00 +17°C° 0 mm 4 mps 750 mmHg 58%
15:00 +17°C° 0 mm 4 mps 750 mmHg 61%
16:00 +15°C° 0 mm 4 mps 750 mmHg 63%
17:00 +16°C° 0 mm 3 mps 749 mmHg 66%
18:00 +13°C° 0.1 mm 2 mps 750 mmHg 79%
19:00 +13°C° 0.1 mm 2 mps 750 mmHg 82%
20:00 +12°C° 0.1 mm 2 mps 750 mmHg 84%
21:00 +12°C° 0 mm 2 mps 750 mmHg 85%
22:00 +12°C° 0 mm 2 mps 750 mmHg 85%
23:00 +10°C° 0 mm 2 mps 750 mmHg 85%

Tomorrow, 14 April, Wednesday

Time Temperature Precipitation Wind Pressure Humidity
00:00 +10°C° 0 mm 2 mps 750 mmHg 85%
01:00 +10°C° 0 mm 2 mps 750 mmHg 85%
02:00 +10°C° 0 mm 2 mps 749 mmHg 85%
03:00 +10°C° 0 mm 2 mps 749 mmHg 85%
04:00 +10°C° 0 mm 2 mps 749 mmHg 85%
05:00 +10°C° 0 mm 2 mps 749 mmHg 86%
06:00 +10°C° 0 mm 2 mps 749 mmHg 84%
07:00 +10°C° 0 mm 2 mps 749 mmHg 83%
08:00 +10°C° 0 mm 2 mps 749 mmHg 82%
09:00 +12°C° 0 mm 2 mps 749 mmHg 77%
10:00 +14°C° 0 mm 2 mps 748 mmHg 71%
11:00 +14°C° 0 mm 3 mps 748 mmHg 65%
12:00 +14°C° 0.1 mm 3 mps 748 mmHg 63%
13:00 +14°C° 0.1 mm 3 mps 748 mmHg 62%
14:00 +16°C° 0.1 mm 3 mps 747 mmHg 60%
15:00 +16°C° 0.1 mm 2 mps 747 mmHg 60%
16:00 +15°C° 0.1 mm 2 mps 747 mmHg 61%
17:00 +15°C° 0.1 mm 1 mps 747 mmHg 62%
18:00 +14°C° 0.1 mm 1 mps 747 mmHg 66%
19:00 +13°C° 0.1 mm 1 mps 747 mmHg 70%
20:00 +12°C° 0.1 mm 0 mps 747 mmHg 73%
21:00 +12°C° 0 mm 1 mps 747 mmHg 75%
22:00 +12°C° 0 mm 1 mps 747 mmHg 77%
23:00 +12°C° 0 mm 1 mps 747 mmHg 78%

Day after tomorrow, 15 April, Thursday

Time Temperature Precipitation Wind Pressure Humidity
00:00 +12°C° 0 mm 1 mps 746 mmHg 78%
01:00 +11°C° 0 mm 1 mps 746 mmHg 79%
02:00 +10°C° 0 mm 2 mps 746 mmHg 79%
03:00 +10°C° 0 mm 2 mps 746 mmHg 80%
04:00 +10°C° 0 mm 2 mps 746 mmHg 80%
05:00 +10°C° 0 mm 2 mps 746 mmHg 81%
06:00 +10°C° 0 mm 2 mps 746 mmHg 78%
07:00 +12°C° 0 mm 2 mps 746 mmHg 76%
08:00 +12°C° 0 mm 3 mps 746 mmHg 73%
09:00 +13°C° 0.3 mm 3 mps 746 mmHg 67%
10:00 +14°C° 0.3 mm 3 mps 746 mmHg 61%
11:00 +16°C° 0.3 mm 3 mps 745 mmHg 55%
12:00 +16°C° 0.1 mm 3 mps 745 mmHg 52%
13:00 +17°C° 0.1 mm 4 mps 745 mmHg 48%
14:00 +17°C° 0.1 mm 4 mps 745 mmHg 44%
15:00 +15°C° 0 mm 4 mps 745 mmHg 50%
16:00 +14°C° 0 mm 4 mps 744 mmHg 55%
17:00 +13°C° 0 mm 4 mps 744 mmHg 61%
18:00 +12°C° 0.1 mm 4 mps 745 mmHg 67%
19:00 +11°C° 0.1 mm 4 mps 745 mmHg 74%
20:00 +10°C° 0.1 mm 4 mps 745 mmHg 80%
21:00 +10°C° 0.3 mm 4 mps 745 mmHg 82%
22:00 +10°C° 0.3 mm 3 mps 745 mmHg 84%
23:00 +10°C° 0.3 mm 3 mps 745 mmHg 87%

16 April, Friday

Time Temperature Precipitation Wind Pressure Humidity
00:00 +9°C° 0.1 mm 3 mps 745 mmHg 87%
01:00 +9°C° 0.1 mm 2 mps 745 mmHg 87%
02:00 +9°C° 0.1 mm 2 mps 745 mmHg 87%
03:00 +9°C° 0 mm 2 mps 745 mmHg 87%
04:00 +9°C° 0 mm 2 mps 745 mmHg 86%
05:00 +9°C° 0 mm 2 mps 745 mmHg 86%
06:00 +9°C° 0 mm 3 mps 745 mmHg 79%
07:00 +10°C° 0 mm 3 mps 745 mmHg 71%
08:00 +10°C° 0 mm 4 mps 745 mmHg 64%
09:00 +11°C° 0 mm 4 mps 746 mmHg 60%
10:00 +12°C° 0 mm 5 mps 746 mmHg 56%
11:00 +12°C° 0 mm 5 mps 746 mmHg 51%
12:00 +12°C° 0 mm 5 mps 746 mmHg 51%
13:00 +12°C° 0 mm 5 mps 746 mmHg 51%
14:00 +12°C° 0 mm 5 mps 747 mmHg 51%
15:00 +11°C° 0 mm 4 mps 747 mmHg 51%
16:00 +11°C° 0 mm 4 mps 747 mmHg 52%
17:00 +11°C° 0 mm 4 mps 747 mmHg 52%
18:00 +10°C° 0 mm 3 mps 747 mmHg 55%
19:00 +9°C° 0 mm 2 mps 748 mmHg 58%
20:00 +10°C° 0 mm 1 mps 748 mmHg 61%
21:00 +9°C° 0 mm 1 mps 748 mmHg 64%
22:00 +9°C° 0 mm 1 mps 748 mmHg 66%
23:00 +8°C° 0 mm 1 mps 749 mmHg 69%

17 April, Saturday

Time Temperature Precipitation Wind Pressure Humidity
00:00 +8°C° 0 mm 1 mps 749 mmHg 69%
01:00 +8°C° 0 mm 1 mps 749 mmHg 69%
02:00 +8°C° 0 mm 1 mps 749 mmHg 70%
03:00 +8°C° 0.1 mm 1 mps 749 mmHg 73%
04:00 +8°C° 0.1 mm 1 mps 749 mmHg 76%
05:00 +8°C° 0.1 mm 1 mps 749 mmHg 79%
06:00 +8°C° 0.3 mm 1 mps 749 mmHg 80%
07:00 +7°C° 0.3 mm 2 mps 749 mmHg 81%
08:00 +7°C° 0.3 mm 2 mps 749 mmHg 82%
09:00 +7°C° 1.3 mm 3 mps 749 mmHg 84%
10:00 +6°C° 1.3 mm 4 mps 749 mmHg 87%
11:00 +5°C° 1.3 mm 4 mps 750 mmHg 89%
12:00 +5°C° 2.4 mm 5 mps 750 mmHg 91%
13:00 +5°C° 2.4 mm 5 mps 750 mmHg 92%
14:00 +5°C° 2.4 mm 5 mps 750 mmHg 93%
15:00 +5°C° 0.4 mm 4 mps 750 mmHg 92%
16:00 +5°C° 0.4 mm 3 mps 751 mmHg 91%
17:00 +6°C° 0.4 mm 2 mps 751 mmHg 90%
18:00 +7°C° 0 mm 1 mps 751 mmHg 90%
19:00 +7°C° 0 mm 1 mps 751 mmHg 91%
20:00 +7°C° 0 mm 1 mps 752 mmHg 91%
21:00 +7°C° 0 mm 1 mps 752 mmHg 92%
22:00 +7°C° 0 mm 1 mps 752 mmHg 92%
23:00 +6°C° 0 mm 1 mps 753 mmHg 93%

18 April, Sunday

Time Temperature Precipitation Wind Pressure Humidity
00:00 +6°C° 0 mm 1 mps 753 mmHg 93%
01:00 +6°C° 0 mm 1 mps 753 mmHg 93%
02:00 +5°C° 0 mm 1 mps 753 mmHg 93%
03:00 +5°C° 0 mm 1 mps 754 mmHg 93%
04:00 +4°C° 0 mm 2 mps 754 mmHg 94%
05:00 +4°C° 0 mm 2 mps 754 mmHg 94%
06:00 +5°C° 0 mm 3 mps 755 mmHg 91%
07:00 +7°C° 0 mm 3 mps 755 mmHg 88%
08:00 +7°C° 0 mm 4 mps 755 mmHg 85%
09:00 +8°C° 0 mm 5 mps 755 mmHg 80%
10:00 +9°C° 0 mm 5 mps 756 mmHg 75%
11:00 +9°C° 0 mm 5 mps 756 mmHg 70%
12:00 +10°C° 0 mm 5 mps 756 mmHg 68%
13:00 +10°C° 0 mm 5 mps 756 mmHg 66%
14:00 +10°C° 0 mm 5 mps 756 mmHg 65%
15:00 +11°C° 0 mm 4 mps 756 mmHg 65%
16:00 +11°C° 0 mm 4 mps 756 mmHg 66%
17:00 +10°C° 0 mm 3 mps 756 mmHg 66%
18:00 +10°C° 0 mm 3 mps 757 mmHg 68%
19:00 +9°C° 0 mm 3 mps 757 mmHg 70%
20:00 +9°C° 0 mm 3 mps 757 mmHg 72%
21:00 +8°C° 0 mm 3 mps 757 mmHg 72%
22:00 +8°C° 0 mm 3 mps 757 mmHg 73%
23:00 +6°C° 0 mm 4 mps 757 mmHg 73%
Show more